Terminal Aerodrome Forecast
Issued by NWS Portland, ME

Home | Current Version | Previous Version | Text Only | Print | Product List | Glossary On
Versions: 1 2 3 4 5 6 7 8 9 10 11 12 13 14 15 16 17 18 19 20 21 22 23
000
FTUS41 KGYX 311120
TAFCON
TAF
KCON 311120Z 3112/0112 31018G30KT P6SM BKN070 OVC100
     FM311600 32018G30KT P6SM SCT050
     FM312200 32010KT P6SM SKC=

USA.gov is the U.S. government's official web portal to all federal, state and local government web resources and services.